Retour au catalogue

FENGYUN 1C DEB

ActifSSO
NORAD 32352·DEBRIS·🇨🇳 China

Lancé May 10, 1999 depuis Taiyuan Satellite Launch Center

Loading…

Prochains Passages (prochaines 24 heures)

TLE

FraisSource: Space-Track

Époque: Sep 12, 2026, 00:39 UTC

1 32352U 99025CYV 26255.02749651  .00000652  00000-0  19596-3 0  9990
2 32352  98.7856 187.8097 0122308  77.4252 284.0583 14.41941401692076

Suivez FENGYUN 1C DEB en temps réel avec AllMySat

Download on the App Store